Location: Jackson
(35.6140°N, 88.8140°W)
Time: 19:34:42
(UTC-05:00)

Hubble Space Telescope - Visible Passes

Search period start: 22 October 2019 00:00
Search period end: 01 November 2019 00:00
Orbit: 536 x 540 km, 28.5° (Epoch: 21 October)

Date Brightness Start Highest point End Pass type
(mag) Time Alt. Az. Time Alt. Az. Time Alt. Az.
26 Oct 3.5 06:37:06 10° S 06:38:58 13° SSE 06:40:49 10° SE visible
27 Oct 3.3 06:25:49 10° SSW 06:28:16 15° SSE 06:30:43 10° SE visible
28 Oct 3.1 06:14:46 10° SSW 06:17:35 18° SSE 06:20:25 10° ESE visible
29 Oct 2.9 06:03:50 10° SW 06:06:55 20° SSE 06:10:01 10° ESE visible
30 Oct 2.6 05:53:46 14° SSW 05:56:16 23° SSE 05:59:34 10° ESE visible
31 Oct 2.4 05:43:59 20° SSW 05:45:37 25° S 05:49:02 10° ESE visible
